Location: Barcelona
(41.3830°N, 2.1830°E)
Time: 14:16:40
(UTC+02:00)

ISS - Pass Details

Date: 28 March 2020
Orbit: 416 x 423 km, 51.6° (Epoch: 02 April)

Event Time Altitude Azimuth Distance (km) Brightness Sun altitude
Rises 19:52:18 0° 296° (WNW) 2,358 1.9 -8.2°
Reaches altitude 10° 19:55:09 10° 322° (NW) 1,496 -0.1 -8.7°
Maximum altitude 19:57:04 14° 357° (N) 1,261 -1.1 -9.1°
Drops below altitude 10° 19:58:59 10° 32° (NNE) 1,497 -1.1 -9.4°
Enters shadow 20:00:47 - 52° (NE) 2,003 -0.7 -9.7°
